Time,TemperatureF,DewpointF,PressureIn,WindDirection,WindDirectionDegrees,WindSpeedMPH,WindSpeedGustMPH,Humidity,HourlyPrecipIn,Conditions,Clouds,dailyrainin,SoftwareType,DateUTC
2013-03-10 00:01:00,36.0,33.0,30.28,NE,55,3.0,8.0,88,0.00,,,0.00,,2013-03-10 05:01:00,
2013-03-10 00:11:00,36.0,33.0,30.28,NE,55,3.0,8.0,88,0.00,,,0.00,,2013-03-10 05:11:00,
2013-03-10 00:22:00,36.0,33.0,30.28,NE,37,3.0,6.0,88,0.00,,,0.00,,2013-03-10 05:22:00,
2013-03-10 00:32:00,36.0,33.0,30.28,NE,46,1.0,8.0,89,0.00,,,0.00,,2013-03-10 05:32:00,
2013-03-10 00:42:00,36.0,33.0,30.29,NNE,22,3.0,9.0,89,0.00,,,0.00,,2013-03-10 05:42:00,
2013-03-10 00:52:00,36.0,33.0,30.29,NNE,22,3.0,9.0,89,0.00,,,0.00,,2013-03-10 05:52:00,
2013-03-10 01:01:00,36.0,33.0,30.30,NE,42,2.0,7.0,89,0.00,,,0.00,,2013-03-10 06:01:00,
2013-03-10 01:11:00,36.0,33.0,30.30,NE,42,2.0,7.0,89,0.00,,,0.00,,2013-03-10 06:11:00,
2013-03-10 01:22:00,36.0,33.0,30.30,NE,37,2.0,8.0,89,0.00,,,0.00,,2013-03-10 06:22:00,
2013-03-10 01:32:00,36.0,33.0,30.30,NE,37,2.0,8.0,89,0.00,,,0.00,,2013-03-10 06:32:00,
2013-03-10 01:42:00,37.0,34.0,30.30,NNE,32,3.0,9.0,88,0.00,,,0.00,,2013-03-10 06:42:00,
2013-03-10 01:52:00,37.0,34.0,30.30,NNE,32,3.0,9.0,88,0.00,,,0.00,,2013-03-10 06:52:00,
2013-03-10 03:02:00,37.0,34.0,30.30,NE,44,3.0,10.0,87,0.00,,,0.00,,2013-03-10 07:02:00,
2013-03-10 03:11:00,37.0,33.0,30.29,NNE,27,3.0,12.0,86,0.00,,,0.00,,2013-03-10 07:11:00,
2013-03-10 03:21:00,37.0,33.0,30.29,NNE,27,3.0,12.0,86,0.00,,,0.00,,2013-03-10 07:21:00,
2013-03-10 03:32:00,37.0,33.0,30.29,NNE,27,3.0,12.0,86,0.00,,,0.00,,2013-03-10 07:32:00,
2013-03-10 03:42:00,38.0,33.0,30.29,NE,40,3.0,14.0,83,0.00,,,0.00,,2013-03-10 07:42:00,
2013-03-10 03:52:00,38.0,33.0,30.29,NE,40,3.0,14.0,83,0.00,,,0.00,,2013-03-10 07:52:00,
2013-03-10 04:01:00,38.0,33.0,30.29,NE,41,4.0,14.0,83,0.00,,,0.00,,2013-03-10 08:01:00,
2013-03-10 04:11:00,38.0,33.0,30.29,NE,41,4.0,14.0,83,0.00,,,0.00,,2013-03-10 08:11:00,
2013-03-10 04:21:00,37.0,33.0,30.30,NNE,26,2.0,14.0,84,0.00,,,0.00,,2013-03-10 08:21:00,
2013-03-10 04:31:00,37.0,33.0,30.29,NE,46,3.0,16.0,84,0.00,,,0.00,,2013-03-10 08:31:00,
2013-03-10 04:42:00,37.0,32.0,30.30,NE,37,5.0,16.0,83,0.00,,,0.00,,2013-03-10 08:42:00,
2013-03-10 04:51:00,37.0,32.0,30.30,NE,37,5.0,16.0,83,0.00,,,0.00,,2013-03-10 08:51:00,
2013-03-10 05:02:00,37.0,33.0,30.30,NNE,21,4.0,13.0,84,0.00,,,0.00,,2013-03-10 09:02:00,
2013-03-10 05:11:00,37.0,33.0,30.30,NNE,21,4.0,13.0,84,0.00,,,0.00,,2013-03-10 09:11:00,
2013-03-10 05:21:00,37.0,32.0,30.31,ENE,62,4.0,18.0,83,0.00,,,0.00,,2013-03-10 09:21:00,
2013-03-10 05:31:00,37.0,33.0,30.31,NNE,33,3.0,15.0,84,0.00,,,0.00,,2013-03-10 09:31:00,
2013-03-10 05:41:00,37.0,33.0,30.31,NNE,33,3.0,15.0,84,0.00,,,0.00,,2013-03-10 09:41:00,
2013-03-10 05:52:00,37.0,32.0,30.32,NNE,13,5.0,14.0,83,0.00,,,0.00,,2013-03-10 09:52:00,
2013-03-10 06:01:00,37.0,32.0,30.32,ENE,65,7.0,15.0,83,0.00,,,0.00,,2013-03-10 10:01:00,
2013-03-10 06:11:00,37.0,32.0,30.32,ENE,65,7.0,15.0,83,0.00,,,0.00,,2013-03-10 10:11:00,
2013-03-10 06:21:00,37.0,32.0,30.32,NNE,31,2.0,14.0,83,0.00,,,0.00,,2013-03-10 10:21:00,
2013-03-10 06:32:00,37.0,32.0,30.33,NE,35,5.0,13.0,83,0.00,,,0.00,,2013-03-10 10:32:00,
2013-03-10 06:41:00,37.0,32.0,30.33,NE,44,5.0,15.0,83,0.00,,,0.00,,2013-03-10 10:41:00,
2013-03-10 06:42:00,37.0,33.0,30.33,NNE,26,3.0,9.0,84,0.00,,,0.00,,2013-03-10 10:42:00,
2013-03-10 06:52:00,37.0,33.0,30.33,NNE,26,3.0,9.0,84,0.00,,,0.00,,2013-03-10 10:52:00,
2013-03-10 07:01:00,37.0,32.0,30.33,NE,44,5.0,15.0,83,0.00,,,0.00,,2013-03-10 11:01:00,
2013-03-10 07:12:00,37.0,32.0,30.33,NE,44,5.0,15.0,83,0.00,,,0.00,,2013-03-10 11:12:00,
2013-03-10 07:21:00,37.0,32.0,30.33,NE,44,5.0,15.0,83,0.00,,,0.00,,2013-03-10 11:21:00,
2013-03-10 07:32:00,37.0,32.0,30.33,NE,44,5.0,15.0,83,0.00,,,0.00,,2013-03-10 11:32:00,
2013-03-10 07:52:00,37.0,33.0,30.33,NE,56,2.0,9.0,84,0.00,,,0.00,,2013-03-10 11:52:00,
2013-03-10 08:02:00,37.0,33.0,30.34,NE,35,4.0,9.0,84,0.00,,,0.00,,2013-03-10 12:02:00,
2013-03-10 08:11:00,37.0,33.0,30.34,NE,35,4.0,9.0,84,0.00,,,0.00,,2013-03-10 12:11:00,
2013-03-10 08:21:00,37.0,32.0,30.34,North,356,1.0,9.0,83,0.00,,,0.00,,2013-03-10 12:21:00,
2013-03-10 08:31:00,37.0,33.0,30.34,NNE,31,2.0,6.0,84,0.00,,,0.00,,2013-03-10 12:31:00,
2013-03-10 08:42:00,37.0,33.0,30.34,NNE,31,2.0,6.0,84,0.00,,,0.00,,2013-03-10 12:42:00,
2013-03-10 08:52:00,38.0,33.0,30.34,ENE,62,4.0,9.0,83,0.00,,,0.00,,2013-03-10 12:52:00,
2013-03-10 09:01:00,38.0,33.0,30.35,NE,55,3.0,13.0,83,0.00,,,0.00,,2013-03-10 13:01:00,
2013-03-10 09:11:00,38.0,33.0,30.35,NE,55,3.0,13.0,83,0.00,,,0.00,,2013-03-10 13:11:00,
2013-03-10 09:21:00,38.0,33.0,30.35,NNE,29,4.0,12.0,82,0.00,,,0.00,,2013-03-10 13:21:00,
2013-03-10 09:31:00,38.0,33.0,30.35,NE,45,1.0,10.0,83,0.00,,,0.00,,2013-03-10 13:31:00,
2013-03-10 09:41:00,38.0,33.0,30.35,NE,45,1.0,10.0,83,0.00,,,0.00,,2013-03-10 13:41:00,
2013-03-10 09:52:00,38.0,33.0,30.35,NNE,27,4.0,12.0,82,0.00,,,0.00,,2013-03-10 13:52:00,
2013-03-10 10:02:00,38.0,33.0,30.35,NNE,27,4.0,12.0,82,0.00,,,0.00,,2013-03-10 14:02:00,
2013-03-10 10:11:00,38.0,33.0,30.35,NNE,27,4.0,12.0,82,0.00,,,0.00,,2013-03-10 14:11:00,
2013-03-10 10:21:00,39.0,34.0,30.35,NE,40,2.0,15.0,81,0.00,,,0.00,,2013-03-10 14:21:00,
2013-03-10 10:32:00,39.0,34.0,30.36,NE,43,3.0,11.0,81,0.00,,,0.00,,2013-03-10 14:32:00,
2013-03-10 10:42:00,39.0,34.0,30.36,NE,43,3.0,11.0,81,0.00,,,0.00,,2013-03-10 14:42:00,
2013-03-10 10:51:00,39.0,34.0,30.36,NE,55,2.0,13.0,81,0.00,,,0.00,,2013-03-10 14:51:00,
2013-03-10 11:01:00,39.0,34.0,30.36,NE,37,3.0,13.0,81,0.00,,,0.00,,2013-03-10 15:01:00,
2013-03-10 11:11:00,39.0,34.0,30.36,NE,37,3.0,13.0,81,0.00,,,0.00,,2013-03-10 15:11:00,
2013-03-10 11:21:00,39.0,33.0,30.36,NE,55,2.0,13.0,80,0.00,,,0.00,,2013-03-10 15:21:00,
2013-03-10 11:32:00,39.0,34.0,30.36,North,355,6.0,11.0,81,0.00,,,0.00,,2013-03-10 15:32:00,
2013-03-10 11:42:00,39.0,34.0,30.36,North,355,6.0,11.0,81,0.00,,,0.00,,2013-03-10 15:42:00,
2013-03-10 11:52:00,40.0,34.0,30.37,NE,44,2.0,11.0,79,0.00,,,0.00,,2013-03-10 15:52:00,
2013-03-10 12:01:00,40.0,34.0,30.37,NE,44,2.0,11.0,79,0.00,,,0.00,,2013-03-10 16:01:00,
2013-03-10 12:12:00,40.0,34.0,30.37,NE,44,2.0,11.0,79,0.00,,,0.00,,2013-03-10 16:12:00,
2013-03-10 12:21:00,40.0,34.0,30.37,NNE,20,4.0,11.0,79,0.00,,,0.00,,2013-03-10 16:21:00,
2013-03-10 12:32:00,40.0,34.0,30.37,NNE,20,4.0,10.0,79,0.00,,,0.00,,2013-03-10 16:32:00,
2013-03-10 12:42:00,40.0,34.0,30.37,NNE,20,4.0,10.0,79,0.00,,,0.00,,2013-03-10 16:42:00,
2013-03-10 12:52:00,40.0,34.0,30.36,NNE,14,4.0,10.0,78,0.00,,,0.00,,2013-03-10 16:52:00,
2013-03-10 13:01:00,40.0,34.0,30.36,North,7,4.0,10.0,78,0.00,,,0.00,,2013-03-10 17:01:00,
2013-03-10 13:11:00,40.0,34.0,30.36,North,7,4.0,10.0,78,0.00,,,0.00,,2013-03-10 17:11:00,
2013-03-10 13:21:00,40.0,34.0,30.36,North,349,4.0,11.0,78,0.00,,,0.00,,2013-03-10 17:21:00,
2013-03-10 13:31:00,40.0,34.0,30.35,NNE,24,2.0,10.0,78,0.00,,,0.00,,2013-03-10 17:31:00,
2013-03-10 13:41:00,40.0,34.0,30.35,NNE,24,2.0,10.0,78,0.00,,,0.00,,2013-03-10 17:41:00,
2013-03-10 13:51:00,40.0,33.0,30.35,NNE,24,4.0,11.0,76,0.00,,,0.00,,2013-03-10 17:51:00,
2013-03-10 14:01:00,41.0,35.0,30.35,North,4,3.0,12.0,78,0.00,,,0.00,,2013-03-10 18:01:00,
2013-03-10 14:11:00,41.0,35.0,30.35,North,4,3.0,12.0,78,0.00,,,0.00,,2013-03-10 18:11:00,
2013-03-10 14:22:00,41.0,34.0,30.34,North,3,2.0,10.0,76,0.00,,,0.00,,2013-03-10 18:22:00,
2013-03-10 14:32:00,41.0,34.0,30.34,North,10,5.0,11.0,76,0.00,,,0.00,,2013-03-10 18:32:00,
2013-03-10 14:42:00,41.0,34.0,30.34,North,10,5.0,11.0,76,0.00,,,0.00,,2013-03-10 18:42:00,
2013-03-10 14:52:00,41.0,34.0,30.34,North,10,5.0,11.0,76,0.00,,,0.00,,2013-03-10 18:52:00,
2013-03-10 15:01:00,41.0,34.0,30.34,North,10,5.0,11.0,76,0.00,,,0.00,,2013-03-10 19:01:00,
2013-03-10 15:22:00,41.0,34.0,30.33,NNE,17,5.0,11.0,75,0.00,,,0.00,,2013-03-10 19:22:00,
2013-03-10 15:32:00,41.0,34.0,30.33,NNE,28,4.0,12.0,76,0.00,,,0.00,,2013-03-10 19:32:00,
2013-03-10 15:42:00,41.0,34.0,30.33,NNE,28,4.0,12.0,76,0.00,,,0.00,,2013-03-10 19:42:00,
2013-03-10 15:53:00,42.0,35.0,30.33,North,2,6.0,11.0,76,0.00,,,0.00,,2013-03-10 19:53:00,
2013-03-10 16:02:00,42.0,35.0,30.33,NNE,22,4.0,11.0,76,0.00,,,0.00,,2013-03-10 20:02:00,
2013-03-10 16:12:00,42.0,35.0,30.33,NNE,22,4.0,11.0,76,0.00,,,0.00,,2013-03-10 20:12:00,
2013-03-10 16:22:00,41.0,34.0,30.33,North,350,6.0,12.0,76,0.00,,,0.00,,2013-03-10 20:22:00,
2013-03-10 16:32:00,41.0,34.0,30.32,NNW,339,3.0,9.0,77,0.00,,,0.00,,2013-03-10 20:32:00,
2013-03-10 16:43:00,41.0,34.0,30.32,NNW,339,3.0,9.0,77,0.00,,,0.00,,2013-03-10 20:43:00,
2013-03-10 16:52:00,40.0,33.0,30.32,North,356,6.0,12.0,77,0.00,,,0.00,,2013-03-10 20:52:00,
2013-03-10 17:02:00,40.0,34.0,30.32,North,355,4.0,10.0,78,0.00,,,0.00,,2013-03-10 21:02:00,
2013-03-10 17:12:00,40.0,34.0,30.32,North,355,4.0,10.0,78,0.00,,,0.00,,2013-03-10 21:12:00,
2013-03-10 17:23:00,40.0,34.0,30.33,North,5,4.0,12.0,79,0.00,,,0.00,,2013-03-10 21:23:00,
2013-03-10 17:32:00,39.0,33.0,30.33,North,352,1.0,8.0,80,0.00,,,0.00,,2013-03-10 21:32:00,
2013-03-10 17:42:00,39.0,33.0,30.33,North,352,1.0,8.0,80,0.00,,,0.00,,2013-03-10 21:42:00,
2013-03-10 17:53:00,39.0,33.0,30.32,North,9,3.0,9.0,79,0.00,,,0.00,,2013-03-10 21:53:00,
2013-03-10 18:03:00,39.0,33.0,30.33,North,3,2.0,6.0,79,0.00,,,0.00,,2013-03-10 22:03:00,
2013-03-10 18:12:00,39.0,33.0,30.33,North,3,2.0,6.0,79,0.00,,,0.00,,2013-03-10 22:12:00,
2013-03-10 18:22:00,39.0,33.0,30.33,NNE,16,2.0,9.0,80,0.00,,,0.00,,2013-03-10 22:22:00,
2013-03-10 18:32:00,39.0,34.0,30.33,North,355,1.0,7.0,81,0.00,,,0.00,,2013-03-10 22:32:00,
2013-03-10 18:43:00,39.0,34.0,30.33,North,355,1.0,7.0,81,0.00,,,0.00,,2013-03-10 22:43:00,
2013-03-10 18:53:00,38.0,33.0,30.33,NE,41,0.0,6.0,81,0.00,,,0.00,,2013-03-10 22:53:00,
2013-03-10 19:03:00,38.0,33.0,30.33,NE,39,0.0,3.0,81,0.00,,,0.00,,2013-03-10 23:03:00,
2013-03-10 19:12:00,38.0,33.0,30.33,NE,42,1.0,3.0,82,0.00,,,0.00,,2013-03-10 23:12:00,
2013-03-10 19:23:00,38.0,33.0,30.33,NE,42,1.0,3.0,82,0.00,,,0.00,,2013-03-10 23:23:00,
2013-03-10 19:33:00,38.0,33.0,30.34,NE,43,0.0,0.0,82,0.00,,,0.00,,2013-03-10 23:33:00,
2013-03-10 19:42:00,38.0,33.0,30.34,NE,43,0.0,0.0,82,0.00,,,0.00,,2013-03-10 23:42:00,
2013-03-10 19:52:00,38.0,33.0,30.33,East,86,0.0,3.0,83,0.00,,,0.00,,2013-03-10 23:52:00,
2013-03-10 20:02:00,38.0,33.0,30.33,East,86,0.0,3.0,83,0.00,,,0.00,,2013-03-11 00:02:00,
2013-03-10 20:12:00,38.0,33.0,30.33,East,86,0.0,3.0,83,0.00,,,0.00,,2013-03-11 00:12:00,
2013-03-10 20:23:00,37.0,32.0,30.35,ESE,111,0.0,3.0,83,0.00,,,0.00,,2013-03-11 00:23:00,
2013-03-10 20:33:00,37.0,32.0,30.35,East,100,1.0,2.0,83,0.00,,,0.00,,2013-03-11 00:33:00,
2013-03-10 20:43:00,37.0,32.0,30.35,East,100,1.0,2.0,83,0.00,,,0.00,,2013-03-11 00:43:00,
2013-03-10 20:53:00,37.0,32.0,30.35,East,101,0.0,1.0,83,0.00,,,0.00,,2013-03-11 00:53:00,
2013-03-10 21:03:00,37.0,33.0,30.35,SSE,166,0.0,5.0,84,0.00,,,0.00,,2013-03-11 01:03:00,
2013-03-10 21:13:00,37.0,33.0,30.35,SSE,166,0.0,5.0,84,0.00,,,0.00,,2013-03-11 01:13:00,
2013-03-10 21:23:00,37.0,33.0,30.35,SSE,161,2.0,5.0,85,0.00,,,0.00,,2013-03-11 01:23:00,
2013-03-10 21:32:00,37.0,33.0,30.35,SE,143,0.0,5.0,85,0.00,,,0.00,,2013-03-11 01:32:00,
2013-03-10 21:42:00,37.0,33.0,30.35,SE,143,0.0,5.0,85,0.00,,,0.00,,2013-03-11 01:42:00,
2013-03-10 21:53:00,37.0,33.0,30.34,South,174,1.0,6.0,85,0.00,,,0.00,,2013-03-11 01:53:00,
2013-03-10 22:02:00,37.0,33.0,30.34,South,183,1.0,7.0,85,0.00,,,0.00,,2013-03-11 02:02:00,
2013-03-10 22:12:00,37.0,33.0,30.34,South,183,1.0,7.0,85,0.00,,,0.00,,2013-03-11 02:12:00,
2013-03-10 22:23:00,36.0,32.0,30.34,South,175,1.0,5.0,85,0.00,,,0.00,,2013-03-11 02:23:00,
2013-03-10 22:32:00,36.0,32.0,30.34,South,174,1.0,6.0,86,0.00,,,0.00,,2013-03-11 02:32:00,
2013-03-10 22:42:00,36.0,32.0,30.34,South,174,1.0,6.0,86,0.00,,,0.00,,2013-03-11 02:42:00,
2013-03-10 22:53:00,36.0,32.0,30.33,South,171,3.0,7.0,86,0.00,,,0.00,,2013-03-11 02:53:00,
2013-03-10 23:02:00,36.0,32.0,30.32,SSE,161,5.0,9.0,86,0.00,,,0.00,,2013-03-11 03:02:00,
2013-03-10 23:12:00,36.0,32.0,30.32,SSE,161,5.0,9.0,86,0.00,,,0.00,,2013-03-11 03:12:00,
2013-03-10 23:22:00,36.0,32.0,30.33,South,174,1.0,10.0,86,0.00,,,0.00,,2013-03-11 03:22:00,
2013-03-10 23:32:00,36.0,33.0,30.33,South,176,2.0,4.0,87,0.00,,,0.00,,2013-03-11 03:32:00,
2013-03-10 23:42:00,36.0,33.0,30.33,South,176,2.0,4.0,87,0.00,,,0.00,,2013-03-11 03:42:00,
2013-03-10 23:53:00,36.0,33.0,30.34,SSW,192,1.0,5.0,87,0.00,,,0.00,,2013-03-11 03:53:00,